Location: Observatory
(52.1446°N, 0.4624°W)
Time: 02:06:33
(UTC+01:00)

ISS - Pass Details

Date: 19 May 2018
Orbit: 402 x 406 km, 51.6° (Epoch: 21 June)

Event Time Altitude Azimuth Distance (km) Brightness Sun altitude
Exits shadow 01:25:34 49° 243° (WSW) 526 -3.6 -17.9°
Maximum altitude 01:26:19 75° 170° (S) 421 -4.0 -17.9°
Drops below altitude 10° 01:29:34 10° 85° (E) 1,460 -0.9 -17.8°
Sets 01:31:39 0° 84° (E) 2,320 0.2 -17.8°
